Time,TemperatureF,DewpointF,PressureIn,WindDirection,WindDirectionDegrees,WindSpeedMPH,WindSpeedGustMPH,Humidity,HourlyPrecipIn,Conditions,Clouds,dailyrainin,SoftwareType,DateUTC
2013-03-09 00:05:00,57.7,56.0,29.86,WSW,243,0.0,1.0,94,0.00,,,0.00,Wunderground v.1.15,2013-03-08 22:05:00,
2013-03-09 00:15:00,57.6,55.9,29.86,WSW,243,0.0,0.0,94,0.00,,,0.00,Wunderground v.1.15,2013-03-08 22:15:00,
2013-03-09 00:25:00,57.5,55.8,29.86,WSW,242,0.0,0.0,94,0.00,,,0.00,Wunderground v.1.15,2013-03-08 22:25:00,
2013-03-09 00:35:00,57.4,55.7,29.86,WSW,243,0.0,0.0,94,0.00,,,0.00,Wunderground v.1.15,2013-03-08 22:35:00,
2013-03-09 00:40:00,57.4,55.7,29.86,WSW,242,0.0,0.0,94,0.00,,,0.00,Wunderground v.1.15,2013-03-08 22:40:00,
2013-03-09 00:50:00,57.4,55.7,29.85,WSW,243,0.0,0.0,94,0.00,,,0.00,Wunderground v.1.15,2013-03-08 22:50:00,
2013-03-09 01:00:00,57.4,55.7,29.85,WSW,243,0.0,0.0,94,0.00,,,0.00,Wunderground v.1.15,2013-03-08 23:00:00,
2013-03-09 01:10:00,57.4,56.0,29.85,WSW,242,0.0,0.0,95,0.00,,,0.00,Wunderground v.1.15,2013-03-08 23:10:00,
2013-03-09 01:20:00,57.3,55.9,29.84,WSW,243,0.0,0.0,95,0.00,,,0.00,Wunderground v.1.15,2013-03-08 23:20:00,
2013-03-09 01:30:00,57.0,55.6,29.84,WSW,243,0.0,0.0,95,0.00,,,0.00,Wunderground v.1.15,2013-03-08 23:30:00,
2013-03-09 01:40:00,56.9,55.5,29.84,WSW,242,0.0,0.0,95,0.00,,,0.00,Wunderground v.1.15,2013-03-08 23:40:00,
2013-03-09 01:50:00,56.8,55.4,29.84,WSW,243,0.0,0.0,95,0.00,,,0.00,Wunderground v.1.15,2013-03-08 23:50:00,
2013-03-09 01:55:00,56.7,55.3,29.84,WSW,243,0.0,0.0,95,0.00,,,0.00,Wunderground v.1.15,2013-03-08 23:55:00,
2013-03-09 02:05:00,56.6,55.2,29.84,WSW,243,1.0,2.0,95,0.00,,,0.00,Wunderground v.1.15,2013-03-09 00:05:00,
2013-03-09 02:10:00,56.6,55.2,29.84,WSW,243,1.0,1.0,95,0.00,,,0.00,Wunderground v.1.15,2013-03-09 00:10:00,
2013-03-09 02:20:00,56.6,55.2,29.84,WSW,243,0.0,0.0,95,0.00,,,0.00,Wunderground v.1.15,2013-03-09 00:20:00,
2013-03-09 02:30:00,56.4,55.0,29.83,WSW,243,1.0,2.0,95,0.00,,,0.00,Wunderground v.1.15,2013-03-09 00:30:00,
2013-03-09 02:35:00,56.2,54.8,29.83,SW,225,2.0,2.0,95,0.00,,,0.00,Wunderground v.1.15,2013-03-09 00:35:00,
2013-03-09 02:45:00,56.0,54.6,29.83,SSW,202,2.0,2.0,95,0.00,,,0.00,Wunderground v.1.15,2013-03-09 00:45:00,
2013-03-09 02:55:00,56.0,54.6,29.83,SSW,202,0.0,1.0,95,0.00,,,0.00,Wunderground v.1.15,2013-03-09 00:55:00,
2013-03-09 03:05:00,56.1,54.7,29.83,SSW,202,0.0,0.0,95,0.00,,,0.00,Wunderground v.1.15,2013-03-09 01:05:00,
2013-03-09 03:10:00,56.1,54.7,29.83,SSW,202,0.0,0.0,95,0.00,,,0.00,Wunderground v.1.15,2013-03-09 01:10:00,
2013-03-09 03:20:00,56.0,54.6,29.83,SSW,202,0.0,0.0,95,0.00,,,0.00,Wunderground v.1.15,2013-03-09 01:20:00,
2013-03-09 03:30:00,56.1,54.7,29.83,SSW,202,0.0,0.0,95,0.00,,,0.00,Wunderground v.1.15,2013-03-09 01:30:00,
2013-03-09 03:40:00,56.0,54.6,29.82,SSW,202,0.0,0.0,95,0.00,,,0.00,Wunderground v.1.15,2013-03-09 01:40:00,
2013-03-09 03:45:00,56.0,54.6,29.82,SSW,202,0.0,0.0,95,0.00,,,0.00,Wunderground v.1.15,2013-03-09 01:45:00,
2013-03-09 03:50:00,56.0,54.6,29.82,SSW,202,0.0,2.0,95,0.00,,,0.00,Wunderground v.1.15,2013-03-09 01:50:00,
2013-03-09 04:00:00,55.9,54.5,29.81,SSW,202,2.0,2.0,95,0.00,,,0.00,Wunderground v.1.15,2013-03-09 02:00:00,
2013-03-09 04:10:00,55.8,54.4,29.81,SE,126,2.0,4.0,95,0.00,,,0.00,Wunderground v.1.15,2013-03-09 02:10:00,
2013-03-09 04:20:00,55.6,54.2,29.81,SE,134,4.0,4.0,95,0.00,,,0.00,Wunderground v.1.15,2013-03-09 02:20:00,
2013-03-09 04:30:00,55.4,54.0,29.81,SE,125,3.0,3.0,95,0.00,,,0.00,Wunderground v.1.15,2013-03-09 02:30:00,
2013-03-09 04:40:00,55.5,54.1,29.81,ESE,116,3.0,3.0,95,0.00,,,0.00,Wunderground v.1.15,2013-03-09 02:40:00,
2013-03-09 04:50:00,55.4,54.0,29.81,SE,134,3.0,3.0,95,0.00,,,0.00,Wunderground v.1.15,2013-03-09 02:50:00,
2013-03-09 04:55:00,55.3,53.9,29.81,SE,128,3.0,3.0,95,0.00,,,0.00,Wunderground v.1.15,2013-03-09 02:55:00,
2013-03-09 05:05:00,55.3,53.9,29.81,ESE,109,3.0,3.0,95,0.00,,,0.00,Wunderground v.1.15,2013-03-09 03:05:00,
2013-03-09 05:15:00,55.3,53.9,29.80,ESE,116,2.0,4.0,95,0.00,,,0.00,Wunderground v.1.15,2013-03-09 03:15:00,
2013-03-09 05:25:00,55.3,53.9,29.81,ESE,116,2.0,2.0,95,0.00,,,0.00,Wunderground v.1.15,2013-03-09 03:25:00,
2013-03-09 05:35:00,55.3,53.9,29.80,ESE,116,2.0,2.0,95,0.00,,,0.00,Wunderground v.1.15,2013-03-09 03:35:00,
2013-03-09 05:45:00,55.4,54.3,29.80,ESE,116,0.0,1.0,96,0.00,,,0.00,Wunderground v.1.15,2013-03-09 03:45:00,
2013-03-09 05:55:00,55.5,54.4,29.80,ESE,115,2.0,2.0,96,0.00,,,0.00,Wunderground v.1.15,2013-03-09 03:55:00,
2013-03-09 06:05:00,55.4,54.0,29.80,ESE,115,2.0,3.0,95,0.00,,,0.00,Wunderground v.1.15,2013-03-09 04:05:00,
2013-03-09 06:10:00,55.4,54.0,29.80,ESE,115,3.0,3.0,95,0.00,,,0.00,Wunderground v.1.15,2013-03-09 04:10:00,
2013-03-09 06:20:00,55.4,54.0,29.81,ESE,116,1.0,1.0,95,0.00,,,0.00,Wunderground v.1.15,2013-03-09 04:20:00,
2013-03-09 06:30:00,55.5,54.1,29.80,ESE,116,0.0,0.0,95,0.00,,,0.00,Wunderground v.1.15,2013-03-09 04:30:00,
2013-03-09 06:40:00,55.6,54.2,29.80,ESE,116,0.0,0.0,95,0.00,,,0.00,Wunderground v.1.15,2013-03-09 04:40:00,
2013-03-09 06:50:00,55.6,54.2,29.80,ESE,117,1.0,1.0,95,0.00,,,0.01,Wunderground v.1.15,2013-03-09 04:50:00,
2013-03-09 07:00:00,55.5,54.1,29.80,ESE,117,0.0,2.0,95,0.00,,,0.01,Wunderground v.1.15,2013-03-09 05:00:00,
2013-03-09 07:05:00,55.5,54.1,29.80,ESE,117,1.0,2.0,95,0.00,,,0.01,Wunderground v.1.15,2013-03-09 05:05:00,
2013-03-09 07:10:00,55.5,54.1,29.80,ESE,117,0.0,3.0,95,0.00,,,0.01,Wunderground v.1.15,2013-03-09 05:10:00,
2013-03-09 07:20:00,55.4,54.0,29.80,ESE,121,2.0,3.0,95,0.00,,,0.01,Wunderground v.1.15,2013-03-09 05:20:00,
2013-03-09 07:30:00,55.4,54.0,29.80,ESE,113,3.0,4.0,95,0.00,,,0.01,Wunderground v.1.15,2013-03-09 05:30:00,
2013-03-09 07:40:00,55.5,54.1,29.80,ESE,115,3.0,3.0,95,0.00,,,0.01,Wunderground v.1.15,2013-03-09 05:40:00,
2013-03-09 07:45:00,55.6,54.2,29.80,ESE,115,2.0,3.0,95,0.00,,,0.01,Wunderground v.1.15,2013-03-09 05:45:00,
2013-03-09 07:55:00,55.8,54.4,29.80,ESE,115,2.0,2.0,95,0.00,,,0.01,Wunderground v.1.15,2013-03-09 05:55:00,
2013-03-09 08:05:00,56.0,54.6,29.81,ESE,115,2.0,3.0,95,0.00,,,0.01,Wunderground v.1.15,2013-03-09 06:05:00,
2013-03-09 08:15:00,56.1,54.7,29.81,ESE,115,0.0,1.0,95,0.00,,,0.01,Wunderground v.1.15,2013-03-09 06:15:00,
2013-03-09 08:25:00,56.1,54.7,29.81,ESE,115,0.0,0.0,95,0.00,,,0.01,Wunderground v.1.15,2013-03-09 06:25:00,
2013-03-09 08:35:00,56.5,55.1,29.81,ESE,115,0.0,0.0,95,0.00,,,0.01,Wunderground v.1.15,2013-03-09 06:35:00,
2013-03-09 08:45:00,56.8,55.4,29.81,ESE,115,0.0,0.0,95,0.00,,,0.01,Wunderground v.1.15,2013-03-09 06:45:00,
2013-03-09 08:55:00,57.0,55.6,29.81,ESE,115,0.0,0.0,95,0.00,,,0.01,Wunderground v.1.15,2013-03-09 06:55:00,
2013-03-09 09:05:00,57.8,56.7,29.81,ESE,115,0.0,0.0,96,0.00,,,0.01,Wunderground v.1.15,2013-03-09 07:05:00,
2013-03-09 09:15:00,59.1,58.0,29.81,SW,227,0.0,0.0,96,0.00,,,0.01,Wunderground v.1.15,2013-03-09 07:15:00,
2013-03-09 09:25:00,59.5,58.4,29.82,SW,227,1.0,2.0,96,0.00,,,0.01,Wunderground v.1.15,2013-03-09 07:25:00,
2013-03-09 09:35:00,59.8,58.4,29.82,SW,227,0.0,1.0,95,0.00,,,0.01,Wunderground v.1.15,2013-03-09 07:35:00,
2013-03-09 09:45:00,60.3,58.9,29.81,SW,227,0.0,0.0,95,0.00,,,0.01,Wunderground v.1.15,2013-03-09 07:45:00,
2013-03-09 09:55:00,60.5,58.8,29.81,SW,219,0.0,3.0,94,0.00,,,0.01,Wunderground v.1.15,2013-03-09 07:55:00,
2013-03-09 10:05:00,60.5,58.5,29.81,SW,230,1.0,3.0,93,0.00,,,0.01,Wunderground v.1.15,2013-03-09 08:05:00,
2013-03-09 10:15:00,60.5,57.9,29.81,SSW,192,1.0,3.0,91,0.00,,,0.01,Wunderground v.1.15,2013-03-09 08:15:00,
2013-03-09 10:25:00,61.0,57.7,29.81,SSW,193,1.0,4.0,89,0.00,,,0.01,Wunderground v.1.15,2013-03-09 08:25:00,
2013-03-09 10:35:00,61.1,57.5,29.81,SSE,167,1.0,2.0,88,0.00,,,0.01,Wunderground v.1.15,2013-03-09 08:35:00,
2013-03-09 10:45:00,62.3,58.4,29.81,WSW,241,0.0,1.0,87,0.00,,,0.01,Wunderground v.1.15,2013-03-09 08:45:00,
2013-03-09 10:55:00,62.7,57.8,29.80,WSW,242,1.0,2.0,84,0.00,,,0.01,Wunderground v.1.15,2013-03-09 08:55:00,
2013-03-09 11:00:00,63.0,58.1,29.81,SW,235,1.0,1.0,84,0.00,,,0.01,Wunderground v.1.15,2013-03-09 09:00:00,
2013-03-09 11:10:00,64.1,58.8,29.81,WSW,252,1.0,2.0,83,0.00,,,0.01,Wunderground v.1.15,2013-03-09 09:10:00,
2013-03-09 11:20:00,64.4,58.8,29.81,SW,219,1.0,2.0,82,0.00,,,0.01,Wunderground v.1.15,2013-03-09 09:20:00,
2013-03-09 11:30:00,64.6,59.0,29.81,WSW,258,1.0,1.0,82,0.00,,,0.01,Wunderground v.1.15,2013-03-09 09:30:00,
2013-03-09 11:40:00,64.5,58.9,29.80,WSW,252,2.0,2.0,82,0.00,,,0.01,Wunderground v.1.15,2013-03-09 09:40:00,
2013-03-09 11:45:00,64.6,59.3,29.80,WSW,252,2.0,2.0,83,0.00,,,0.01,Wunderground v.1.15,2013-03-09 09:45:00,
2013-03-09 11:55:00,65.4,59.8,29.80,West,261,1.0,4.0,82,0.00,,,0.01,Wunderground v.1.15,2013-03-09 09:55:00,
2013-03-09 12:05:00,64.8,59.2,29.80,WSW,254,3.0,3.0,82,0.00,,,0.01,Wunderground v.1.15,2013-03-09 10:05:00,
2013-03-09 12:10:00,65.4,59.8,29.80,WSW,257,1.0,1.0,82,0.00,,,0.01,Wunderground v.1.15,2013-03-09 10:10:00,
2013-03-09 12:20:00,66.6,60.6,29.79,West,280,1.0,1.0,81,0.00,,,0.01,Wunderground v.1.15,2013-03-09 10:20:00,
2013-03-09 12:30:00,66.2,59.8,29.79,West,260,2.0,2.0,80,0.00,,,0.01,Wunderground v.1.15,2013-03-09 10:30:00,
2013-03-09 12:35:00,66.3,60.3,29.79,WSW,256,2.0,5.0,81,0.00,,,0.01,Wunderground v.1.15,2013-03-09 10:35:00,
2013-03-09 12:40:00,66.0,60.0,29.79,WSW,241,2.0,2.0,81,0.00,,,0.01,Wunderground v.1.15,2013-03-09 10:40:00,
2013-03-09 12:50:00,65.9,59.6,29.79,West,260,2.0,3.0,80,0.00,,,0.01,Wunderground v.1.15,2013-03-09 10:50:00,
2013-03-09 13:00:00,65.8,59.5,29.79,WSW,257,3.0,3.0,80,0.00,,,0.01,Wunderground v.1.15,2013-03-09 11:00:00,
2013-03-09 13:10:00,65.9,59.2,29.79,WSW,256,1.0,1.0,79,0.00,,,0.01,Wunderground v.1.15,2013-03-09 11:10:00,
2013-03-09 13:20:00,65.5,59.2,29.78,West,271,3.0,3.0,80,0.00,,,0.01,Wunderground v.1.15,2013-03-09 11:20:00,
2013-03-09 13:25:00,65.2,58.9,29.77,West,268,3.0,3.0,80,0.00,,,0.01,Wunderground v.1.15,2013-03-09 11:25:00,
2013-03-09 13:30:00,65.1,59.1,29.78,WSW,256,2.0,2.0,81,0.00,,,0.01,Wunderground v.1.15,2013-03-09 11:30:00,
2013-03-09 13:40:00,64.7,58.7,29.77,WSW,254,2.0,2.0,81,0.00,,,0.01,Wunderground v.1.15,2013-03-09 11:40:00,
2013-03-09 13:50:00,64.9,59.3,29.76,WSW,248,1.0,1.0,82,0.00,,,0.01,Wunderground v.1.15,2013-03-09 11:50:00,
2013-03-09 14:00:00,65.8,59.8,29.76,WSW,249,1.0,1.0,81,0.00,,,0.01,Wunderground v.1.15,2013-03-09 12:00:00,
2013-03-09 14:10:00,66.7,60.3,29.75,WSW,252,1.0,1.0,80,0.00,,,0.01,Wunderground v.1.15,2013-03-09 12:10:00,
2013-03-09 14:20:00,67.0,59.5,29.75,SW,234,1.0,1.0,77,0.00,,,0.01,Wunderground v.1.15,2013-03-09 12:20:00,
2013-03-09 14:25:00,67.0,59.9,29.75,SW,229,1.0,3.0,78,0.00,,,0.01,Wunderground v.1.15,2013-03-09 12:25:00,
2013-03-09 14:35:00,67.3,60.6,29.75,SW,231,1.0,1.0,79,0.00,,,0.01,Wunderground v.1.15,2013-03-09 12:35:00,
2013-03-09 14:45:00,68.1,61.3,29.74,West,263,1.0,1.0,79,0.00,,,0.01,Wunderground v.1.15,2013-03-09 12:45:00,
2013-03-09 14:55:00,68.3,61.2,29.74,WSW,246,1.0,1.0,78,0.00,,,0.01,Wunderground v.1.15,2013-03-09 12:55:00,
2013-03-09 15:00:00,68.7,60.8,29.74,WSW,242,1.0,1.0,76,0.00,,,0.01,Wunderground v.1.15,2013-03-09 13:00:00,
2013-03-09 15:10:00,68.9,60.6,29.74,WSW,240,1.0,1.0,75,0.00,,,0.01,Wunderground v.1.15,2013-03-09 13:10:00,
2013-03-09 15:20:00,68.7,60.5,29.74,WSW,251,1.0,3.0,75,0.00,,,0.01,Wunderground v.1.15,2013-03-09 13:20:00,
2013-03-09 15:25:00,68.7,61.2,29.74,West,268,2.0,3.0,77,0.00,,,0.01,Wunderground v.1.15,2013-03-09 13:25:00,
2013-03-09 15:35:00,68.5,61.4,29.73,West,263,1.0,2.0,78,0.00,,,0.01,Wunderground v.1.15,2013-03-09 13:35:00,
2013-03-09 15:45:00,68.7,61.6,29.73,West,261,1.0,2.0,78,0.00,,,0.01,Wunderground v.1.15,2013-03-09 13:45:00,
2013-03-09 15:50:00,68.7,61.9,29.74,West,265,1.0,3.0,79,0.00,,,0.01,Wunderground v.1.15,2013-03-09 13:50:00,
2013-03-09 15:55:00,68.6,62.2,29.73,West,280,2.0,3.0,80,0.00,,,0.01,Wunderground v.1.15,2013-03-09 13:55:00,
2013-03-09 16:05:00,68.1,61.3,29.74,North,355,2.0,2.0,79,0.00,,,0.01,Wunderground v.1.15,2013-03-09 14:05:00,
2013-03-09 16:15:00,67.8,60.3,29.74,NNE,18,3.0,3.0,77,0.00,,,0.01,Wunderground v.1.15,2013-03-09 14:15:00,
2013-03-09 16:25:00,67.9,59.7,29.73,NE,39,1.0,2.0,75,0.00,,,0.01,Wunderground v.1.15,2013-03-09 14:25:00,
2013-03-09 16:30:00,68.4,60.5,29.73,NE,37,1.0,1.0,76,0.00,,,0.01,Wunderground v.1.15,2013-03-09 14:30:00,
2013-03-09 16:40:00,68.9,61.0,29.74,WNW,297,0.0,0.0,76,0.00,,,0.01,Wunderground v.1.15,2013-03-09 14:40:00,
2013-03-09 16:50:00,68.8,60.9,29.74,NW,309,1.0,1.0,76,0.00,,,0.01,Wunderground v.1.15,2013-03-09 14:50:00,
2013-03-09 17:00:00,68.4,60.2,29.74,NE,35,2.0,2.0,75,0.00,,,0.01,Wunderground v.1.15,2013-03-09 15:00:00,
2013-03-09 17:10:00,67.9,58.9,29.74,North,9,5.0,9.0,73,0.00,,,0.01,Wunderground v.1.15,2013-03-09 15:10:00,
2013-03-09 17:20:00,67.7,59.1,29.73,NNE,17,5.0,6.0,74,0.00,,,0.01,Wunderground v.1.15,2013-03-09 15:20:00,
2013-03-09 17:30:00,67.3,58.7,29.74,NNE,19,5.0,5.0,74,0.00,,,0.01,Wunderground v.1.15,2013-03-09 15:30:00,
2013-03-09 17:40:00,67.2,58.6,29.74,NNW,346,4.0,4.0,74,0.00,,,0.01,Wunderground v.1.15,2013-03-09 15:40:00,
2013-03-09 17:50:00,67.1,59.6,29.74,NW,319,3.0,3.0,77,0.00,,,0.01,Wunderground v.1.15,2013-03-09 15:50:00,
2013-03-09 18:00:00,66.0,59.7,29.74,WNW,302,2.0,2.0,80,0.00,,,0.01,Wunderground v.1.15,2013-03-09 16:00:00,
2013-03-09 18:10:00,65.0,59.4,29.75,NNW,341,3.0,5.0,82,0.00,,,0.01,Wunderground v.1.15,2013-03-09 16:10:00,
2013-03-09 18:20:00,64.2,59.3,29.74,North,355,3.0,3.0,84,0.00,,,0.01,Wunderground v.1.15,2013-03-09 16:20:00,
2013-03-09 18:30:00,63.7,58.8,29.75,North,5,2.0,4.0,84,0.00,,,0.01,Wunderground v.1.15,2013-03-09 16:30:00,
2013-03-09 18:40:00,63.4,58.1,29.75,NNE,14,1.0,1.0,83,0.00,,,0.01,Wunderground v.1.15,2013-03-09 16:40:00,
2013-03-09 18:50:00,63.2,57.3,29.75,NNE,17,1.0,3.0,81,0.00,,,0.01,Wunderground v.1.15,2013-03-09 16:50:00,
2013-03-09 19:00:00,63.5,57.2,29.76,ENE,63,1.0,1.0,80,0.00,,,0.01,Wunderground v.1.15,2013-03-09 17:00:00,
2013-03-09 19:10:00,63.5,57.2,29.76,SSE,155,0.0,0.0,80,0.00,,,0.01,Wunderground v.1.15,2013-03-09 17:10:00,
2013-03-09 19:20:00,63.9,58.0,29.76,SSE,155,0.0,0.0,81,0.00,,,0.01,Wunderground v.1.15,2013-03-09 17:20:00,
2013-03-09 19:30:00,64.0,58.4,29.77,SSW,209,0.0,0.0,82,0.00,,,0.01,Wunderground v.1.15,2013-03-09 17:30:00,
2013-03-09 19:35:00,63.8,58.2,29.77,NNE,19,0.0,1.0,82,0.00,,,0.01,Wunderground v.1.15,2013-03-09 17:35:00,
2013-03-09 19:45:00,63.2,56.9,29.77,NNW,347,1.0,6.0,80,0.00,,,0.01,Wunderground v.1.15,2013-03-09 17:45:00,
2013-03-09 19:55:00,62.9,56.3,29.78,ENE,71,2.0,6.0,79,0.00,,,0.01,Wunderground v.1.15,2013-03-09 17:55:00,
2013-03-09 20:05:00,63.1,55.8,29.78,North,355,2.0,5.0,77,0.00,,,0.01,Wunderground v.1.15,2013-03-09 18:05:00,
2013-03-09 20:15:00,63.4,55.7,29.78,North,355,3.0,3.0,76,0.00,,,0.01,Wunderground v.1.15,2013-03-09 18:15:00,
2013-03-09 20:25:00,63.6,55.5,29.78,NW,313,3.0,3.0,75,0.00,,,0.01,Wunderground v.1.15,2013-03-09 18:25:00,
2013-03-09 20:35:00,63.9,55.4,29.78,NW,310,4.0,4.0,74,0.00,,,0.01,Wunderground v.1.15,2013-03-09 18:35:00,
2013-03-09 20:40:00,64.0,55.5,29.78,WNW,299,3.0,3.0,74,0.00,,,0.01,Wunderground v.1.15,2013-03-09 18:40:00,
2013-03-09 20:45:00,64.1,56.0,29.78,NNW,334,3.0,3.0,75,0.00,,,0.01,Wunderground v.1.15,2013-03-09 18:45:00,
2013-03-09 20:50:00,64.0,55.9,29.78,North,350,4.0,4.0,75,0.00,,,0.01,Wunderground v.1.15,2013-03-09 18:50:00,
2013-03-09 21:00:00,63.7,56.0,29.78,NNW,341,3.0,4.0,76,0.00,,,0.01,Wunderground v.1.15,2013-03-09 19:00:00,
2013-03-09 21:10:00,63.4,56.1,29.78,NNE,13,4.0,6.0,77,0.00,,,0.01,Wunderground v.1.15,2013-03-09 19:10:00,
2013-03-09 21:20:00,63.2,55.9,29.79,NW,326,4.0,4.0,77,0.00,,,0.01,Wunderground v.1.15,2013-03-09 19:20:00,
2013-03-09 21:30:00,63.3,56.3,29.79,North,360,4.0,4.0,78,0.00,,,0.01,Wunderground v.1.15,2013-03-09 19:30:00,
2013-03-09 21:35:00,63.2,55.9,29.79,NE,51,3.0,4.0,77,0.00,,,0.01,Wunderground v.1.15,2013-03-09 19:35:00,
2013-03-09 21:45:00,63.1,56.1,29.79,NNW,346,6.0,9.0,78,0.00,,,0.01,Wunderground v.1.15,2013-03-09 19:45:00,
2013-03-09 21:55:00,62.9,55.9,29.79,NE,46,8.0,8.0,78,0.00,,,0.01,Wunderground v.1.15,2013-03-09 19:55:00,
2013-03-09 22:05:00,62.7,56.1,29.79,NNE,22,5.0,12.0,79,0.00,,,0.01,Wunderground v.1.15,2013-03-09 20:05:00,
2013-03-09 22:15:00,62.4,56.1,29.80,ENE,65,4.0,6.0,80,0.00,,,0.01,Wunderground v.1.15,2013-03-09 20:15:00,
2013-03-09 22:25:00,62.3,56.0,29.80,ENE,71,4.0,4.0,80,0.00,,,0.01,Wunderground v.1.15,2013-03-09 20:25:00,
2013-03-09 22:35:00,62.2,56.0,29.80,NE,46,2.0,3.0,80,0.00,,,0.01,Wunderground v.1.15,2013-03-09 20:35:00,
2013-03-09 22:40:00,62.2,56.0,29.80,NNE,24,3.0,3.0,80,0.00,,,0.01,Wunderground v.1.15,2013-03-09 20:40:00,
2013-03-09 22:50:00,62.1,55.9,29.80,North,351,4.0,4.0,80,0.00,,,0.01,Wunderground v.1.15,2013-03-09 20:50:00,
2013-03-09 23:00:00,62.1,55.9,29.80,NNE,31,4.0,4.0,80,0.00,,,0.01,Wunderground v.1.15,2013-03-09 21:00:00,
2013-03-09 23:10:00,62.0,55.8,29.81,NNE,22,4.0,4.0,80,0.00,,,0.01,Wunderground v.1.15,2013-03-09 21:10:00,
2013-03-09 23:20:00,62.0,55.8,29.81,NE,44,3.0,3.0,80,0.00,,,0.01,Wunderground v.1.15,2013-03-09 21:20:00,
2013-03-09 23:25:00,62.0,55.8,29.80,NNE,26,4.0,7.0,80,0.00,,,0.01,Wunderground v.1.15,2013-03-09 21:25:00,
2013-03-09 23:35:00,61.9,55.7,29.80,ENE,62,3.0,4.0,80,0.00,,,0.01,Wunderground v.1.15,2013-03-09 21:35:00,
2013-03-09 23:45:00,61.8,55.9,29.80,NNE,26,3.0,6.0,81,0.00,,,0.01,Wunderground v.1.15,2013-03-09 21:45:00,
2013-03-09 23:55:00,61.5,55.6,29.80,NNE,30,5.0,9.0,81,0.00,,,0.01,Wunderground v.1.15,2013-03-09 21:55:00,